Tacoma Narrows, WA

7:49 PM PDT on October 19, 2017 (GMT -0700)
Tacoma Narrows

Weather History for KTIW - October, 2012

Change the Weather History Date:

Wednesday, October 3, 2012

  Actual Average Record
Temperature  
Mean Temperature 56 °F -  
Max Temperature 63 °F 61 °F 72 °F (2014)
Min Temperature 51 °F 48 °F 39 °F (2000)
Degree Days  
Heating Degree Days 8    
Growing Degree Days 6 (Base 50)    
Moisture  
Dew Point 35 °F    
Average Humidity 47    
Maximum Humidity 66    
Minimum Humidity 31    
Precipitation  
Precipitation 0.00 in - - ()
Sea Level Pressure  
Sea Level Pressure 30.31 in    
Wind  
Wind Speed 13 mph (North)    
Max Wind Speed 21 mph    
Max Gust Speed 29 mph    
Visibility 10 miles    
Events      
Averages and records for this station are not official NWS values.
T = Trace of Precipitation, MM = Missing Value Source: NWS Daily Summary

Daily Weather History Graph

Daily Weather History Graph

Search for Another Location

Airport or City:

Trip Planner

Search our weather history database for the weather conditions in past years. The results will help you decide how hot, cold, wet, or windy it might be!

Date:

Astronomy

Oct. 03, 2012 Rise Set
Actual Time 7:12 AM PDT 6:44 PM PDT
Civil Twilight 6:42 AM PDT 7:15 PM PDT
Nautical Twilight 6:06 AM PDT 7:50 PM PDT
Astronomical Twilight 5:30 AM PDT 8:26 PM PDT
Moon 8:23 PM PDT (10/3) 10:57 AM PDT (10/3)
Length of Visible Light 12h 32m
Length of Day
11h 31m
Waning Gibbous, 88% of the Moon is Illuminated
Oct 3
Waning Gibbous
Oct 8
Last Quarter
Oct 15
New
Oct 21
First Quarter
Oct 29
Full

Hourly Weather History & Observations

Time (PDT) Temp. Dew Point Humidity Pressure Visibility Wind Dir Wind Speed Gust Speed Precip Events Conditions
12:53 AM 52.0 °F 41.0 °F 66% 30.28 in 10.0 mi NNE 13.8 mph 20.7 mph N/A   Clear
1:53 AM 52.0 °F 39.9 °F 63% 30.29 in 10.0 mi NNE 8.1 mph - N/A   Clear
2:53 AM 51.1 °F 39.0 °F 63% 30.30 in 10.0 mi NNE 5.8 mph - N/A   Clear
3:53 AM 51.1 °F 34.0 °F 52% 30.30 in 10.0 mi NNE 11.5 mph - N/A   Clear
4:53 AM 52.0 °F 32.0 °F 47% 30.32 in 10.0 mi North 11.5 mph - N/A   Clear
5:53 AM 51.1 °F 32.0 °F 48% 30.33 in 10.0 mi NE 11.5 mph 17.3 mph N/A   Clear
6:53 AM 51.1 °F 35.1 °F 54% 30.33 in 10.0 mi North 15.0 mph 23.0 mph N/A   Clear
7:53 AM 51.1 °F 36.0 °F 56% 30.35 in 10.0 mi North 10.4 mph 16.1 mph N/A   Clear
8:53 AM 53.1 °F 36.0 °F 52% 30.35 in 10.0 mi North 12.7 mph 19.6 mph N/A   Clear
9:53 AM 55.0 °F 34.0 °F 45% 30.36 in 10.0 mi North 18.4 mph 25.3 mph N/A   Clear
10:53 AM 55.9 °F 34.0 °F 44% 30.37 in 10.0 mi North 16.1 mph 25.3 mph N/A   Clear
11:53 AM 57.9 °F 35.1 °F 42% 30.35 in 10.0 mi North 16.1 mph 26.5 mph N/A   Clear
12:53 PM 60.1 °F 34.0 °F 38% 30.35 in 10.0 mi North 17.3 mph 25.3 mph N/A   Clear
1:53 PM 61.0 °F 32.0 °F 34% 30.32 in 10.0 mi North 18.4 mph - N/A   Clear
2:53 PM 62.1 °F 33.1 °F 34% 30.30 in 10.0 mi North 16.1 mph - N/A   Clear
3:53 PM 62.1 °F 33.1 °F 34% 30.29 in 10.0 mi North 19.6 mph 24.2 mph N/A   Clear
4:53 PM 61.0 °F 30.9 °F 32% 30.27 in 10.0 mi North 20.7 mph 28.8 mph N/A   Clear
5:53 PM 60.8 °F 30.2 °F 31% 30.27 in 10.0 mi North 18.4 mph - N/A   Clear
6:53 PM 57.9 °F 33.1 °F 39% 30.26 in 10.0 mi North 19.6 mph 26.5 mph N/A   Clear
7:53 PM 55.9 °F 35.1 °F 45% 30.26 in 10.0 mi North 13.8 mph 21.9 mph N/A   Clear
8:53 PM 55.0 °F 36.0 °F 49% 30.27 in 10.0 mi NNE 11.5 mph - N/A   Clear
9:53 PM 54.0 °F 36.0 °F 51% 30.27 in 10.0 mi North 13.8 mph - N/A   Clear
10:53 PM 54.0 °F 37.0 °F 53% 30.27 in 10.0 mi North 17.3 mph - N/A   Clear
11:53 PM 54.0 °F 35.1 °F 49% 30.27 in 10.0 mi North 15.0 mph 24.2 mph N/A   Clear